TIANTONG-1 3 (47321 NORAD) Tracking and Keplerian Element Data

This shows tracking and keplerian element data for the satellite.

Feedback or suggestion? Click here.




ElementValue
Catalog47321
NameTIANTONG-1 3
Epoch Orbit103
Epoch Day105.86127067
Epoch Year2021
RAAN309.6064
Inclination5.3518
Eccentricity0.0002584
Argument of Perigee137.98
Mean Anonmoly148.2103
Mean Motion1.00273485
Decay Rate-1.57E-06
L11 47321U 21003A 21105.86127067 -.00000157 00000-0 00000+0 0 9992
L22 47321 5.3518 309.6064 0002584 137.9800 148.2103 1.00273485 1039

Live tracking and technical data element details for TIANTONG-1 3 (NORAD 47321). TIANTONG-1 3 can be tracked NOW for your location showing map with azimuth and elevation plus other details from your city location.

Track the satellite on the map from your city or location and see movement details for azimuth, elevation, latitude, longitude, range, height, and movement on the map or in text.







IsCatalogInMostPopularTable: catalog: 47321, numindb: 28
Update: records affected: 1



GetName: 47321 TIANTONG-1 3

Hit Count: updated at: Fri, 16 Apr 2021 11:37:01 GMT